Other Public Products
Issued by NWS Grand Forks, ND

Home | Current Version | Previous Version | Text Only | Print | Product List | Glossary Off
Versions: 1 2 3 4 5 6 7 8 9 10 11 12 13 14 15 16 17 18 19 20 21 22 23 24 25 26 27 28 29 30 31 32 33 34 35 36 37 38 39 40 41 42 43 44 45 46 47 48 49 50

000
FPUS83 KFGF 251031
OPUFGF
PRAIRIE TO PINES WEATHER ROUNDUP
NATIONAL WEATHER SERVICE EASTERN NORTH DAKOTA/GRAND FORKS ND
500 AM CDT MON SEP 25 2017

 **SATELLITE DATA USED TO AUGMENT SKY COVER AT AUTOMATED STATIONS**
 *****  WEATHER ACROSS EASTERN NORTH DAKOTA  *****

CITY           SKY/WX    TMP DP  RH WIND       PRES   REMARKS
GRAND FORKS    CLOUDY    49  48  97 N9        30.07R
GRAND FORKS AF CLOUDY    48  48 100 N8        30.10R
GRAND CITY NWS NOT AVBL
BUXTON           N/A     49  47  95 N8          N/A
DEVILS LAKE    NOT AVBL
FARGO          CLOUDY    50  48  93 N15       30.06S
WAHPETON ARPT  CLOUDY    50  45  81 N9        30.06R
$$

 *****  WEATHER ACROSS CENTRAL AND WESTERN NORTH DAKOTA  *****

CITY           SKY/WX    TMP DP  RH WIND       PRES   REMARKS
JAMESTOWN      CLOUDY    48  45  89 N8        30.08F
BISMARCK       CLOUDY    49  46  90 N3        30.14R
MINOT          CLOUDY    47  44  90 W5        30.12R
MINOT AFB      CLOUDY    46  44  93 NW7       30.11R
GARRISON         N/A     45  44  97 N5        30.13R
WILLISTON      CLOUDY    46  44  93 CALM      30.15R
DICKINSON      CLOUDY    43  41  93 CALM      30.13R
HETTINGER      CLOUDY    44  37  76 N3        30.15R
$$

 *****  OTHER OBSERVATIONS NORTHEAST NORTH DAKOTA  *****

CITY           SKY/WX    TMP DP  RH WIND       PRES   REMARKS
WALHALLA       FAIR     N/A N/A N/A N9        30.11R
LANGDON        NOT AVBL
CAVALIER       CLOUDY    48  45  87 N10       30.09S
GRAFTON        NOT AVBL
CANDO          CLOUDY    46  46 100 N7        30.14R
FORT TOTTEN      N/A     48  44  87 N5        29.95S
ROLLA          FAIR      41  41 100 N8        30.13R
RUGBY          NOT AVBL
 ***** THE ABOVE OBSERVATIONS ARE NON NWS ARE NOT QUALITY
        CONTROLLED AND MAY MIS-REPORT RAIN FOR SNOW...
$$

 *****  OTHER OBSERVATIONS SOUTHEAST NORTH DAKOTA *****

CITY           SKY/WX    TMP DP  RH WIND       PRES   REMARKS
COOPERSTOWN    CLOUDY    48  48 100 N10       30.09S
VALLEY CITY    NOT AVBL
OAKES          NOT AVBL
GWINNER        CLOUDY    50  48  93 NW8       30.07R
SHEYENNE NWR     N/A     51  49  93 N7        29.95S
BUFFALO          N/A     49  46  89 SW6         N/A
WYNDMERE       NOT AVBL
 ***** THE ABOVE OBSERVATIONS ARE NON NWS ARE NOT QUALITY
       CONTROLLED AND MAY MIS-REPORT RAIN FOR SNOW...
$$

  *****  WEATHER ACROSS NORTHERN MINNESOTA  *****

CITY           SKY/WX    TMP DP  RH WIND       PRES   REMARKS
FLAG ISLAND    CLOUDY    48  46  93 NW16      30.00R
WARROAD        CLOUDY    46  43  87 NW8       30.03R FOG
ROSEAU         CLOUDY    46  43  87 NW12      30.03S
HALLOCK        CLOUDY    48  46  93 N15G22    30.07R
THF RVR FALLS  LGT RAIN  46  46 100 NW10      30.07R FOG
HALSTAD          N/A     49  46  91 N10         N/A
FOSSTON        MIX PCPN  46  46 100 NW9       30.05R
BAUDETTE       CLOUDY    50  49  96 NW12      29.99R
WASKISH        CLOUDY    50  48  93 NW10      30.01R
CROOKSTON      CLOUDY    48  46  93 N12       30.08R
$$
  *****  WEATHER ACROSS CENTRAL AND WEST MINNESOTA  *****

CITY           SKY/WX    TMP DP  RH WIND       PRES   REMARKS
BEMIDJI        CLOUDY    47  47  99 NW8       30.02R FOG
PARK RAPIDS    MOCLDY    49  47  93 NW7       30.02R
WADENA         CLOUDY    48  48 100 NW9       30.03R
DETROIT LAKES  CLOUDY    48  46  93 N12       30.04S FOG
MOORHEAD       MOCLDY    48  46  93 N10       30.07R
FERGUS FALLS   CLOUDY    50  50 100 N9        30.06R
ELBOW LAKE     CLOUDY    50  49  96 W9        30.06R
MORRIS MN      DRIZZLE   52  50  93 N9        30.03S
STAPLES        FAIR      48  46  93 NW9       30.02R
WHEATON        CLOUDY    50  46  87 NW8       30.07R
$$
  *****  WEATHER ELSEWHERE ACROSS MINNESOTA  *****

CITY           SKY/WX    TMP DP  RH WIND       PRES   REMARKS
DULUTH         CLOUDY    56  56 100 NW12      29.96R
INTRNTL FALLS  CLOUDY    50  49  96 W6        29.97R FOG
ELY            FAIR      54  54 100 W6        29.95R
CLOQUET        CLOUDY    55  54  94 NW9       29.98R
BRAINERD       MOCLDY    52  49  89 N9        30.01R
HIBBING        FAIR      51  50  96 NW6       29.98R
ALEXANDRIA     CLOUDY    51  49  92 NW12      30.04R
SAINT CLOUD    LGT RAIN  54  53  97 NW7       30.00R
MINNEAPOLIS    LGT RAIN  62  62 100 N12       29.96R
$$

  *****  WEATHER ACROSS SOUTH DAKOTA  *****

CITY           SKY/WX    TMP DP  RH WIND       PRES   REMARKS
SIOUX FALLS    LGT RAIN  54  53  97 N10       30.01R
BROOKINGS      LGT RAIN  50  49  96 N8        30.04S
WATERTOWN      CLOUDY    49  47  93 N9        30.06R
HURON          CLOUDY    50  48  93 N9        30.07S
SISSETON         N/A     51  47  86 N12       30.05R
ABERDEEN       CLOUDY    49  46  90 NW9       30.10R
MITCHELL       LGT RAIN  51  50  96 N9        30.07R
PIERRE         CLOUDY    49  44  83 NE10      30.09S
MOBRIDGE       CLOUDY    50  46  86 N5        30.11R
RAPID CITY     NOT AVBL
$$

  *****  SOME WEATHER IN NEARBY STATES *****

CITY           SKY/WX    TMP DP  RH WIND       PRES   REMARKS
GLASGOW MT     MOCLDY    38  37  97 E8        30.11S
GREAT FALLS MT FAIR      39  30  70 SW10      30.04S
CHEYENNE WY    CLOUDY    39  37  92 NE7       30.10S FOG
SCOTTSBLUFF NE FAIR      42  39  89 E3        30.11R
OMAHA NE       FAIR      62  58  86 NE8       29.93S
DES MOINES IA  FAIR      69  64  84 CALM      29.92R
DAVENPORT IA   FAIR      64  61  90 SE5       29.98S
CHICAGO IL     FAIR      69  57  65 CALM      29.99S
EAU CLAIRE WI  FAIR      65  62  90 CALM      29.93S
LA CROSSE WI   FAIR      70  64  81 SE3       29.92F
$$

  *****  SOME NATIONAL WEATHER *****

CITY           SKY/WX    TMP DP  RH WIND       PRES   REMARKS
LA GUARDIA NY  FAIR      72  66  81 CALM      30.02R
RALEIGH NC     MOCLDY    66  62  87 NE6       30.00R
ATLANTA GA     FAIR      71  64  78 NE9       30.02R
NEW ORLEANS LA FAIR      76  73  91 NE3       29.89S
OKLAHOMA CITY  MOCLDY    69  64  84 SE8       29.90S
ALBUQUERQUE NM FAIR      57  23  26 N6        29.97S
SALT LAKE CITY MOCLDY    45  42  89 S7        30.11S
LOS ANGELES CA FAIR      66  43  43 CALM      29.83F
BOISE ID       FAIR      41  35  79 S6        30.06S
SEATTLE WA     CLOUDY    59  51  75 SE5       30.10S
$$

*** WEATHER ACROSS MANITOBA...SASKATCHEWAN AND ONTARIO ***
                ***ONTARIO***

CITY           SKY/WX    TMP DP  RH WIND       PRES   REMARKS
GERALDTON      MOCLDY    66  61  82 SW10      29.80S
THUNDER BAY    CLOUDY    61  61 100 N2        29.84R
SIOUX LOOKOUT  LGT RAIN  50  50 100 NW5       29.93R FOG
TORONTO        CLEAR     70  63  78 VRB2      30.08R
BIG TROUT LK   LGT RAIN  45  45 100 N8        29.94S FOG
PICKLE LAKE    NOT AVBL
DRYDEN         CLOUDY    50  48  93 N8        29.95
KENORA         CLOUDY    46  46 100 N10       29.99R FOG
$$
                *** MANITOBA***

CITY           SKY/WX    TMP DP  RH WIND       PRES   REMARKS
BRANDON        CLOUDY    45  41  87 N2        30.14R
DAUPHIN        CLOUDY    45  45 100 W2        30.14R
ISLAND LAKE    NOT AVBL
PILOT MOUND      N/A     45  43  93 NW9         N/A
THE PAS        CLEAR     37  36  93 SE5       30.13S
THOMPSON       MOCLDY    28  28 100 NE3       30.16R
WINNIPEG       CLOUDY    46  45  93 N13       30.09R
LYNN LAKE      CLOUDY    36  36 100 SE6       30.12S
CHURCHILL      CLOUDY    39  34  81 W6        30.17S
GILLAM         CLOUDY    37  34  87 NE7       30.16R
$$
                ***SASKATCHEWAN***

CITY           SKY/WX    TMP DP  RH WIND       PRES   REMARKS
ESTEVAN        PTCLDY    39  39 100 N3        30.13R
KINDERSLEY     CLEAR     36  32  87 S3        30.01R
LLOYDMINSTER   CLOUDY    46  36  66 S10       29.94S
PRINCE ALBERT  PTCLDY    37  36  93 E3        30.06F
REGINA         CLOUDY    43  36  75 S7        30.11R
YORKTON        CLOUDY    45  41  87 S3        30.12R



USA.gov is the U.S. government's official web portal to all federal, state and local government web resources and services.